DW9882 Weather Reports


Display with metric or nautical units.
time (UTC)temp
F
wind
direction
speed
MPH
gust
MPH
rain 1hr
in
rain 24hr
in
rain mn
in
humidity
%
barometer
mb
20200921063203 61 246 0.0 2.0 0.00 0.00 0.00 53 1021.0
20200921062703 61 304 1.0 3.0 0.00 0.00 0.00 53 1021.0
20200921062206 61 220 1.0 2.0 0.00 0.00 0.00 53 1021.0
20200921061703 61 232 0.0 0.0 0.00 0.00 0.00 53 1021.0
20200921061204 61 232 0.0 1.0 0.00 0.00 0.00 53 1020.9
20200921060707 61 232 0.0 2.0 0.00 0.00 0.00 53 1020.9
20200921060204 61 231 0.0 3.0 0.00 0.00 0.00 54 1020.9
20200921055704 61 271 1.0 3.0 0.00 0.00 0.00 54 1020.8
20200921055203 60 249 1.0 3.0 0.00 0.00 0.00 54 1020.8
20200921054706 60 309 0.0 1.0 0.00 0.00 0.00 55 1020.9
20200921054204 59 280 0.0 5.0 0.00 0.00 0.00 55 1020.8
20200921053704 59 260 0.0 3.0 0.00 0.00 0.00 55 1020.8
20200921053203 58 242 0.0 1.0 0.00 0.00 0.00 55 1020.8
20200921052706 58 229 1.0 3.0 0.00 0.00 0.00 57 1020.7
20200921052203 58 193 0.0 1.0 0.00 0.00 0.00 57 1020.6
20200921051704 59 193 0.0 3.0 0.00 0.00 0.00 58 1020.5
20200921051206 59 193 0.0 2.0 0.00 0.00 0.00 58 1020.5
20200921050704 59 193 1.0 3.0 0.00 0.00 0.00 57 1020.4
20200921050204 59 190 0.0 2.0 0.00 0.00 0.00 57 1020.4
20200921045705 60 190 0.0 0.0 0.00 0.00 0.00 55 1020.3
20200921045206 60 190 0.0 1.0 0.00 0.00 0.00 56 1020.2
20200921044703 60 190 0.0 0.0 0.00 0.00 0.00 55 1020.1
20200921044204 60 190 0.0 0.0 0.00 0.00 0.00 55 1020.1
20200921043703 60 190 0.0 1.0 0.00 0.00 0.00 55 1020.0
20200921043204 60 190 0.0 1.0 0.00 0.00 0.00 54 1020.0
20200921042711 60 190 0.0 1.0 0.00 0.00 0.00 55 1019.9
20200921042205 61 190 0.0 0.0 0.00 0.00 0.00 54 1019.9
20200921041703 61 190 0.0 1.0 0.00 0.00 0.00 54 1019.9
20200921041203 61 190 0.0 1.0 0.00 0.00 0.00 53 1019.8
20200921040703 61 190 0.0 0.0 0.00 0.00 0.00 53 1019.8
20200921040204 62 190 0.0 0.0 0.00 0.00 0.00 54 1019.7
20200921035703 62 190 0.0 1.0 0.00 0.00 0.00 54 1019.7
20200921035203 62 190 0.0 0.0 0.00 0.00 0.00 52 1019.7
20200921034703 62 190 0.0 0.0 0.00 0.00 0.00 52 1019.6
20200921034210 63 190 0.0 1.0 0.00 0.00 0.00 52 1019.6
20200921033703 63 190 0.0 1.0 0.00 0.00 0.00 51 1019.6
20200921033204 63 190 0.0 1.0 0.00 0.00 0.00 50 1019.6
20200921032710 64 190 0.0 0.0 0.00 0.00 0.00 50 1019.5
20200921032204 64 190 0.0 0.0 0.00 0.00 0.00 49 1019.5
20200921031704 64 190 0.0 1.0 0.00 0.00 0.00 49 1019.4
20200921031204 65 190 0.0 0.0 0.00 0.00 0.00 49 1019.4
20200921030704 65 190 0.0 1.0 0.00 0.00 0.00 47 1019.4
20200921030203 65 190 0.0 1.0 0.00 0.00 0.00 47 1019.4
20200921025706 66 190 0.0 1.0 0.00 0.00 0.00 46 1019.4
20200921025204 66 190 0.0 0.0 0.00 0.00 0.00 47 1019.3
20200921024703 67 190 0.0 2.0 0.00 0.00 0.00 45 1019.4
20200921024203 67 75 1.0 3.0 0.00 0.00 0.00 46 1019.4
20200921023703 68 172 0.0 1.0 0.00 0.00 0.00 44 1019.2
20200921023204 68 172 0.0 1.0 0.00 0.00 0.00 43 1019.1
20200921022707 69 172 0.0 2.0 0.00 0.00 0.00 42 1019.0
20200921022206 69 172 0.0 0.0 0.00 0.00 0.00 41 1019.0
20200921021703 69 172 0.0 0.0 0.00 0.00 0.00 40 1019.0
20200921021203 70 172 0.0 0.0 0.00 0.00 0.00 39 1018.9
20200921020703 70 172 0.0 1.0 0.00 0.00 0.00 38 1018.9
20200921020205 71 172 0.0 2.0 0.00 0.00 0.00 37 1018.9
20200921015703 71 171 0.0 1.0 0.00 0.00 0.00 37 1018.8
20200921015204 72 171 0.0 1.0 0.00 0.00 0.00 36 1018.8
20200921014707 72 171 0.0 1.0 0.00 0.00 0.00 35 1018.6
20200921014204 73 171 0.0 1.0 0.00 0.00 0.00 34 1018.5
20200921013707 73 171 0.0 1.0 0.00 0.00 0.00 34 1018.4
20200921013212 74 171 0.0 1.0 0.00 0.00 0.00 33 1018.4
20200921012703 74 171 0.0 1.0 0.00 0.00 0.00 32 1018.4
20200921012205 74 171 0.0 1.0 0.00 0.00 0.00 32 1018.5
20200921011704 74 171 0.0 0.0 0.00 0.00 0.00 31 1018.6
20200921011205 75 171 0.0 1.0 0.00 0.00 0.00 31 1018.7
20200921010714 75 171 0.0 1.0 0.00 0.00 0.00 31 1018.6
20200921010208 75 171 0.0 1.0 0.00 0.00 0.00 30 1018.6
20200921005705 75 171 0.0 2.0 0.00 0.00 0.00 31 1018.6
20200921005208 75 156 2.0 6.0 0.00 0.00 0.00 31 1018.6
20200921004706 76 172 2.0 5.0 0.00 0.00 0.00 30 1018.6
20200921004204 76 162 1.0 2.0 0.00 0.00 0.00 29 1018.6
20200921003704 77 167 1.0 3.0 0.00 0.00 0.00 29 1018.5
20200921003205 77 169 1.0 2.0 0.00 0.00 0.00 30 1018.6
20200921002703 78 117 0.0 2.0 0.00 0.00 0.00 29 1018.6
20200921002204 78 40 0.0 1.0 0.00 0.00 0.00 27 1018.6
20200921001704 78 40 1.0 2.0 0.00 0.00 0.00 26 1018.6
20200921001205 78 61 0.0 2.0 0.00 0.00 0.00 26 1018.5
20200921000704 78 71 0.0 5.0 0.00 0.00 0.00 26 1018.3
20200921000207 78 82 0.0 3.0 0.00 0.00 0.00 26 1018.2
20200920235708 78 97 0.0 3.0 0.00 0.00 0.00 25 1018.2
20200920235205 78 98 2.0 8.0 0.00 0.00 0.00 25 1018.1
20200920234704 78 9 6.0 13.0 0.00 0.00 0.00 27 1018.4
20200920234205 79 5 1.0 3.0 0.00 0.00 0.00 32 1018.4
20200920233709 80 11 0.0 0.0 0.00 0.00 0.00 30 1018.5
20200920233205 80 11 0.0 1.0 0.00 0.00 0.00 29 1018.3
20200920232705 80 11 0.0 1.0 0.00 0.00 0.00 26 1018.2
20200920232204 80 11 0.0 0.0 0.00 0.00 0.00 26 1018.1
20200920231705 80 11 1.0 3.0 0.00 0.00 0.00 25 1018.0
20200920231203 80 42 1.0 3.0 0.00 0.00 0.00 26 1018.0
20200920230703 81 77 0.0 1.0 0.00 0.00 0.00 27 1018.0
20200920230207 81 77 0.0 0.0 0.00 0.00 0.00 26 1018.1
20200920225703 81 77 0.0 0.0 0.00 0.00 0.00 23 1018.0
20200920225204 81 77 0.0 0.0 0.00 0.00 0.00 26 1018.0
20200920224703 81 77 0.0 1.0 0.00 0.00 0.00 24 1018.0
20200920224203 81 77 0.0 1.0 0.00 0.00 0.00 24 1017.9
20200920223704 82 77 0.0 0.0 0.00 0.00 0.00 24 1017.9
20200920223206 82 77 0.0 3.0 0.00 0.00 0.00 23 1017.8
20200920222704 82 178 0.0 2.0 0.00 0.00 0.00 24 1017.8
20200920222208 82 178 0.0 3.0 0.00 0.00 0.00 25 1017.9
20200920221703 82 173 0.0 1.0 0.00 0.00 0.00 24 1017.9
20200920221203 82 173 0.0 0.0 0.00 0.00 0.00 25 1017.8
20200920220703 81 173 0.0 1.0 0.00 0.00 0.00 28 1017.9
20200920220204 81 173 0.0 0.0 0.00 0.00 0.00 25 1018.0
20200920215704 81 173 0.0 1.0 0.00 0.00 0.00 24 1018.0
20200920215203 82 173 0.0 2.0 0.00 0.00 0.00 22 1017.9
20200920214706 82 169 2.0 5.0 0.00 0.00 0.00 23 1017.9
20200920214207 81 174 1.0 5.0 0.00 0.00 0.00 22 1017.9
20200920213703 81 43 1.0 3.0 0.00 0.00 0.00 24 1018.0
20200920213205 81 85 0.0 1.0 0.00 0.00 0.00 26 1018.0
20200920212707 81 85 0.0 3.0 0.00 0.00 0.00 24 1018.0
20200920212203 80 137 0.0 2.0 0.00 0.00 0.00 24 1018.0
20200920211706 80 137 0.0 1.0 0.00 0.00 0.00 26 1018.1
20200920211203 80 113 1.0 3.0 0.00 0.00 0.00 27 1018.1
20200920210704 81 97 0.0 3.0 0.00 0.00 0.00 26 1018.1
20200920210203 82 64 1.0 3.0 0.00 0.00 0.00 24 1018.2
20200920205704 82 94 1.0 3.0 0.00 0.00 0.00 24 1018.2
20200920205203 82 80 2.0 6.0 0.00 0.00 0.00 23 1018.2
20200920204705 82 31 2.0 3.0 0.00 0.00 0.00 24 1018.2
20200920204204 81 32 2.0 10.0 0.00 0.00 0.00 27 1018.3
20200920203704 81 30 3.0 5.0 0.00 0.00 0.00 24 1018.4
20200920203203 81 44 1.0 3.0 0.00 0.00 0.00 26 1018.5
20200920202703 81 46 1.0 7.0 0.00 0.00 0.00 25 1018.5
20200920202210 80 54 2.0 3.0 0.00 0.00 0.00 27 1018.5
20200920201705 80 8 2.0 5.0 0.00 0.00 0.00 28 1018.5
20200920201204 80 84 1.0 3.0 0.00 0.00 0.00 27 1018.6
20200920200703 80 320 1.0 3.0 0.00 0.00 0.00 33 1018.7
20200920200203 80 63 1.0 5.0 0.00 0.00 0.00 29 1018.7
20200920195703 79 73 2.0 3.0 0.00 0.00 0.00 29 1018.8
20200920195203 78 61 0.0 1.0 0.00 0.00 0.00 32 1018.9
20200920194703 77 56 0.0 3.0 0.00 0.00 0.00 33 1019.0
20200920194213 76 79 1.0 2.0 0.00 0.00 0.00 34 1019.0
20200920193704 76 79 0.0 0.0 0.00 0.00 0.00 37 1019.1
20200920193205 76 79 0.0 1.0 0.00 0.00 0.00 34 1019.1
20200920192704 76 79 0.0 0.0 0.00 0.00 0.00 36 1019.2
20200920192203 76 79 1.0 3.0 0.00 0.00 0.00 35 1019.2
20200920191704 76 28 0.0 5.0 0.00 0.00 0.00 35 1019.3
20200920191205 76 339 1.0 3.0 0.00 0.00 0.00 34 1019.3
20200920190704 76 75 1.0 3.0 0.00 0.00 0.00 36 1019.3
20200920190208 75 72 0.0 3.0 0.00 0.00 0.00 41 1019.3
20200920185703 74 73 1.0 2.0 0.00 0.00 0.00 37 1019.4
20200920185204 75 73 0.0 1.0 0.00 0.00 0.00 39 1019.5
20200920184709 75 73 1.0 3.0 0.00 0.00 0.00 38 1019.4
20200920184207 74 73 1.0 2.0 0.00 0.00 0.00 38 1019.5
20200920183706 73 150 1.0 3.0 0.00 0.00 0.00 39 1019.5
20200920183213 74 52 0.0 2.0 0.00 0.00 0.00 41 1019.6
20200920182703 74 52 0.0 1.0 0.00 0.00 0.00 40 1019.5
20200920182210 75 52 0.0 3.0 0.00 0.00 0.00 39 1019.5
20200920181704 74 42 1.0 5.0 0.00 0.00 0.00 39 1019.6
20200920181207 74 48 1.0 3.0 0.00 0.00 0.00 38 1019.7
20200920180706 74 71 1.0 2.0 0.00 0.00 0.00 41 1019.6
20200920180208 74 42 1.0 3.0 0.00 0.00 0.00 40 1019.7
20200920175708 74 33 2.0 3.0 0.00 0.00 0.00 38 1019.7
20200920175206 74 41 2.0 3.0 0.00 0.00 0.00 39 1019.8
20200920174706 73 47 1.0 3.0 0.00 0.00 0.00 39 1019.9
20200920174203 74 51 1.0 3.0 0.00 0.00 0.00 39 1019.9
20200920173706 73 41 2.0 3.0 0.00 0.00 0.00 39 1019.9
20200920173204 72 21 0.0 2.0 0.00 0.00 0.00 44 1019.9
20200920172703 71 344 1.0 3.0 0.00 0.00 0.00 43 1020.0
20200920172204 71 36 0.0 1.0 0.00 0.00 0.00 44 1020.1
20200920171703 70 36 0.0 1.0 0.00 0.00 0.00 42 1020.1
20200920171206 70 36 2.0 3.0 0.00 0.00 0.00 41 1020.2
20200920170709 70 62 0.0 3.0 0.00 0.00 0.00 44 1020.1
20200920170207 69 51 1.0 2.0 0.00 0.00 0.00 45 1020.1
20200920165704 69 61 0.0 3.0 0.00 0.00 0.00 43 1020.1
20200920165206 69 51 0.0 2.0 0.00 0.00 0.00 46 1020.2
20200920164705 68 52 2.0 3.0 0.00 0.00 0.00 43 1020.2
20200920164212 68 57 1.0 3.0 0.00 0.00 0.00 44 1020.2
20200920163704 67 57 1.0 3.0 0.00 0.00 0.00 47 1020.2
20200920163204 67 61 0.0 2.0 0.00 0.00 0.00 45 1020.2
20200920162706 67 61 1.0 2.0 0.00 0.00 0.00 46 1020.1
20200920162203 67 34 0.0 3.0 0.00 0.00 0.00 47 1020.2
20200920161709 67 80 1.0 3.0 0.00 0.00 0.00 46 1020.1
20200920161208 66 46 0.0 1.0 0.00 0.00 0.00 49 1020.1
20200920160704 66 46 0.0 0.0 0.00 0.00 0.00 50 1020.1
20200920160209 66 46 0.0 1.0 0.00 0.00 0.00 48 1020.0
20200920155708 65 46 0.0 0.0 0.00 0.00 0.00 50 1019.9
20200920155203 65 46 0.0 1.0 0.00 0.00 0.00 55 1019.9
20200920154704 65 46 0.0 0.0 0.00 0.00 0.00 54 1019.9
20200920154206 64 46 0.0 0.0 0.00 0.00 0.00 54 1019.8
20200920153703 64 46 0.0 0.0 0.00 0.00 0.00 56 1019.7
20200920153204 64 46 0.0 1.0 0.00 0.00 0.00 55 1019.7
20200920152706 63 46 0.0 0.0 0.00 0.00 0.00 58 1019.6
20200920152210 62 46 0.0 2.0 0.00 0.00 0.00 57 1019.6
20200920151705 62 40 1.0 3.0 0.00 0.00 0.00 60 1019.5
20200920151204 61 0 0.0 1.0 0.00 0.00 0.00 62 1019.4
20200920150703 60 0 0.0 1.0 0.00 0.00 0.00 63 1019.3
20200920150207 59 0 0.0 1.0 0.00 0.00 0.00 65 1019.3
20200920145704 59 0 0.0 1.0 0.00 0.00 0.00 67 1019.2
20200920145205 58 0 0.0 0.0 0.00 0.00 0.00 67 1019.2
20200920144712 58 0 0.0 0.0 0.00 0.00 0.00 66 1019.2
20200920144207 58 0 0.0 1.0 0.00 0.00 0.00 66 1019.2
20200920143709 57 252 0.0 2.0 0.00 0.00 0.00 69 1019.1
20200920143215 57 217 0.0 0.0 0.00 0.00 0.00 69 1019.1
20200920142705 56 217 0.0 0.0 0.00 0.00 0.00 69 1019.0
20200920142213 56 217 0.0 0.0 0.00 0.00 0.00 69 1019.0
20200920141707 56 217 0.0 0.0 0.00 0.00 0.00 70 1019.0
20200920141212 55 217 0.0 0.0 0.00 0.00 0.00 70 1019.0
20200920140706 55 217 0.0 0.0 0.00 0.00 0.00 70 1019.0
20200920140203 55 217 0.0 0.0 0.00 0.00 0.00 69 1018.9
20200920135712 55 217 0.0 0.0 0.00 0.00 0.00 68 1019.0
20200920135203 55 217 0.0 0.0 0.00 0.00 0.00 68 1018.9
20200920134704 55 217 0.0 0.0 0.00 0.00 0.00 67 1018.8
20200920134209 54 217 0.0 0.0 0.00 0.00 0.00 67 1018.8
20200920133703 54 217 0.0 0.0 0.00 0.00 0.00 66 1018.7
20200920133203 54 217 0.0 0.0 0.00 0.00 0.00 65 1018.6
20200920132704 54 217 0.0 0.0 0.00 0.00 0.00 65 1018.6
20200920132205 54 217 0.0 0.0 0.00 0.00 0.00 65 1018.6
20200920131742 54 217 0.0 2.0 0.00 0.00 0.00 64 1018.5
20200920131209 55 217 0.0 1.0 0.00 0.00 0.00 64 1018.5
20200920130704 55 217 0.0 0.0 0.00 0.00 0.00 63 1018.4
20200920130208 55 217 0.0 0.0 0.00 0.00 0.00 63 1018.4
20200920125703 55 217 0.0 0.0 0.00 0.00 0.00 62 1018.3
20200920125203 54 217 0.0 1.0 0.00 0.00 0.00 62 1018.3
20200920124704 54 202 1.0 3.0 0.00 0.00 0.00 63 1018.3
20200920124205 54 173 1.0 5.0 0.00 0.00 0.00 62 1018.1
20200920123703 55 194 0.0 1.0 0.00 0.00 0.00 62 1018.4
20200920123205 55 194 1.0 2.0 0.00 0.00 0.00 61 1018.3
20200920122704 55 194 0.0 0.0 0.00 0.00 0.00 61 1018.1
20200920122203 55 194 0.0 0.0 0.00 0.00 0.00 60 1018.1
20200920121704 55 194 1.0 3.0 0.00 0.00 0.00 59 1018.2
20200920121204 55 159 0.0 1.0 0.00 0.00 0.00 58 1018.2
20200920120704 56 159 0.0 2.0 0.00 0.00 0.00 58 1018.2
20200920120204 56 159 0.0 2.0 0.00 0.00 0.00 56 1018.2
20200920115703 56 165 0.0 2.0 0.00 0.00 0.00 56 1018.2
20200920115204 57 165 0.0 1.0 0.00 0.00 0.00 55 1018.2
20200920114704 57 165 0.0 2.0 0.00 0.00 0.00 54 1018.1
20200920114204 57 165 0.0 0.0 0.00 0.00 0.00 52 1018.0
20200920113703 58 165 0.0 1.0 0.00 0.00 0.00 52 1018.1
20200920113204 58 165 0.0 1.0 0.00 0.00 0.00 51 1018.2
20200920112704 59 165 0.0 2.0 0.00 0.00 0.00 49 1018.1
20200920112205 59 165 1.0 2.0 0.00 0.00 0.00 49 1018.1
20200920111710 60 165 1.0 2.0 0.00 0.00 0.00 48 1018.1
20200920111204 60 165 0.0 2.0 0.00 0.00 0.00 47 1017.9
20200920110704 60 165 1.0 2.0 0.00 0.00 0.00 45 1017.9
20200920110214 61 165 1.0 3.0 0.00 0.00 0.00 43 1017.9
20200920105705 61 165 0.0 1.0 0.00 0.00 0.00 43 1017.9
20200920105214 62 165 0.0 1.0 0.00 0.00 0.00 43 1018.0
20200920104705 62 165 1.0 2.0 0.00 0.00 0.00 43 1017.9
20200920104204 62 165 0.0 2.0 0.00 0.00 0.00 41 1017.7
20200920103703 62 165 0.0 1.0 0.00 0.00 0.00 41 1017.8
20200920103204 62 165 1.0 3.0 0.00 0.00 0.00 42 1017.6
20200920102704 62 172 2.0 5.0 0.00 0.00 0.00 42 1017.6
20200920102208 62 143 1.0 2.0 0.00 0.00 0.00 42 1017.5
20200920101706 62 143 0.0 3.0 0.00 0.00 0.00 41 1017.6
20200920101204 62 164 0.0 1.0 0.00 0.00 0.00 43 1017.5
20200920100705 62 164 0.0 2.0 0.00 0.00 0.00 43 1017.6
20200920100204 61 162 0.0 1.0 0.00 0.00 0.00 44 1017.6
20200920095703 61 162 0.0 1.0 0.00 0.00 0.00 44 1017.7
20200920095204 61 162 0.0 1.0 0.00 0.00 0.00 44 1017.8
20200920094704 61 162 0.0 3.0 0.00 0.00 0.00 45 1017.7
20200920094206 60 175 1.0 5.0 0.00 0.00 0.00 45 1017.7
20200920093704 60 170 1.0 3.0 0.00 0.00 0.00 46 1017.7
20200920093235 59 194 0.0 2.0 0.00 0.00 0.00 47 1017.7
20200920092704 59 194 0.0 1.0 0.00 0.00 0.00 54 1017.7
20200920092204 59 194 1.0 2.0 0.00 0.00 0.00 55 1017.8
20200920091703 59 194 0.0 0.0 0.00 0.00 0.00 53 1017.8
20200920091203 59 194 0.0 2.0 0.00 0.00 0.00 53 1017.9
20200920090704 59 194 0.0 2.0 0.00 0.00 0.00 54 1017.9
20200920090213 59 194 1.0 3.0 0.00 0.00 0.00 55 1017.9
20200920085705 58 193 0.0 1.0 0.00 0.00 0.00 55 1017.9
20200920085208 58 193 0.0 1.0 0.00 0.00 0.00 55 1017.9
20200920084704 58 193 0.0 1.0 0.00 0.00 0.00 55 1017.8
20200920084205 58 193 0.0 2.0 0.00 0.00 0.00 54 1017.8
20200920083704 58 193 1.0 2.0 0.00 0.00 0.00 56 1017.9
20200920083203 58 193 0.0 2.0 0.00 0.00 0.00 54 1017.8
20200920082704 58 193 0.0 1.0 0.00 0.00 0.00 55 1017.9
20200920082205 58 215 0.0 2.0 0.00 0.00 0.00 55 1017.9
20200920081704 58 311 0.0 0.0 0.00 0.00 0.00 54 1017.8
20200920081203 58 311 0.0 0.0 0.00 0.00 0.00 54 1017.8
20200920080703 58 311 0.0 1.0 0.00 0.00 0.00 53 1017.7
20200920080207 58 311 0.0 1.0 0.00 0.00 0.00 52 1017.6
20200920075705 58 311 0.0 0.0 0.00 0.00 0.00 52 1017.7
20200920075203 58 311 0.0 2.0 0.00 0.00 0.00 51 1017.7
20200920074705 58 311 0.0 1.0 0.00 0.00 0.00 50 1017.6
20200920074205 58 311 0.0 1.0 0.00 0.00 0.00 51 1017.7
20200920073704 58 339 0.0 0.0 0.00 0.00 0.00 50 1017.7
20200920073203 58 339 0.0 0.0 0.00 0.00 0.00 51 1017.6
20200920072704 58 339 0.0 0.0 0.00 0.00 0.00 49 1017.7
20200920072205 58 339 0.0 1.0 0.00 0.00 0.00 49 1017.7
20200920071703 57 339 0.0 2.0 0.00 0.00 0.00 48 1017.7
20200920071203 57 11 0.0 3.0 0.00 0.00 0.00 49 1017.7
20200920070707 56 0 0.0 2.0 0.00 0.00 0.00 49 1017.7
20200920070206 56 0 0.0 1.0 0.00 0.00 0.00 50 1017.7
20200920065700 56 3 0.0 3.0 0.00 0.00 0.00 50 1017.6
20200920065200 56 184 1.0 2.0 0.00 0.00 0.00 54 1017.6
20200920064703 56 184 1.0 2.0 0.00 0.00 0.00 55 1017.3
20200920064201 56 184 0.0 2.0 0.00 0.00 0.00 54 1017.2
20200920063700 56 184 1.0 2.0 0.00 0.00 0.00 53 1017.0